Pure Adrenalin — VJD3680 — position and weather

sailwx.info

Track history (hours):
 
Tides and Currents Weather Stations Pressure Air Temp Water Temp Dewpoint Dewpoint Depression Visibility Wind Speed Wind Dir Waves Ship Positions

Pure Adrenalin

Last reported at 2014-Jul-24 21:29 UTC. Time now 2014-Jul-24 21:39 UTC.
Position S 12°29' E 130°49'.

Length 21 m.

Type: Ship. MMSI: 503642100.

Date/timePositionNaut miles runAvg speedWind from/ knotsBaromVisibWave heightAir tempDewpointWater temp
2014-Jul-24 21:29S 12°29' E 130°49'1 0.4
2014-Jul-24 19:31S 12°29' E 130°50'1 0.1
2014-Jul-24 13:24S 12°29' E 130°49'0 0.1
2014-Jul-24 12:27S 12°29' E 130°49'0 0.0
2014-Jul-24 11:27S 12°29' E 130°49'0 0.4
2014-Jul-24 10:32S 12°29' E 130°49'0 0.3
2014-Jul-24 09:31S 12°29' E 130°49'2 0.9
2014-Jul-24 07:15S 12°28' E 130°51'1 1.9
2014-Jul-24 06:32S 12°29' E 130°50'1 0.3
2014-Jul-24 03:33S 12°29' E 130°49'0 0.4
2014-Jul-24 02:27S 12°29' E 130°48'1 0.6
2014-Jul-24 01:33S 12°29' E 130°49'0 0.3
2014-Jul-24 00:32S 12°29' E 130°49'2 1.8
2014-Jul-23 23:31S 12°28' E 130°51'2 1.6
2014-Jul-23 22:31S 12°28' E 130°49'1 0.2
2014-Jul-23 19:28S 12°29' E 130°49'0 0.0
2014-Jul-23 14:31S 12°29' E 130°48'0 0.0
2014-Jul-23 12:10S 12°29' E 130°48'1 0.9
2014-Jul-23 11:33S 12°28' E 130°48'1 0.6
2014-Jul-23 10:33S 12°29' E 130°48'3 2.8
2014-Jul-23 09:33S 12°28' E 130°51'1 0.2
2014-Jul-23 06:30S 12°28' E 130°51'2 1.5
2014-Jul-23 05:21S 12°30' E 130°50'0 0.6
2014-Jul-23 04:33S 12°29' E 130°50'2 1.4
2014-Jul-23 03:21S 12°28' E 130°51'2 1.7
2014-Jul-23 02:20S 12°30' E 130°50'0 0.3
2014-Jul-23 01:29S 12°30' E 130°50'0 0.2
2014-Jul-23 00:26S 12°30' E 130°50'1 1.5
2014-Jul-22 23:32S 12°28' E 130°49'1 0.6
2014-Jul-22 22:26S 12°28' E 130°48'1 0.8
2014-Jul-22 21:33S 12°28' E 130°49'1 0.3
2014-Jul-22 19:16S 12°29' E 130°49'0 0.0
2014-Jul-22 18:31S 12°29' E 130°49'0 0.0
2014-Jul-22 17:31S 12°29' E 130°49'0 0.0
2014-Jul-22 13:25S 12°29' E 130°49'0 0.0
2014-Jul-22 12:25S 12°29' E 130°49'1 0.4
2014-Jul-22 11:10S 12°29' E 130°48'3 4.3
2014-Jul-22 10:31S 12°28' E 130°51'0 0.0
2014-Jul-22 09:31S 12°28' E 130°51'2 0.6
2014-Jul-22 06:14S 12°29' E 130°49'1 0.7
2014-Jul-22 05:28S 12°29' E 130°50'1 0.8
2014-Jul-22 04:06S 12°28' E 130°51'2 3.8
2014-Jul-22 03:33S 12°29' E 130°49'0 0.2
2014-Jul-22 02:27S 12°29' E 130°49'1 0.5
2014-Jul-22 00:14S 12°29' E 130°48'1 0.9
2014-Jul-21 23:18S 12°29' E 130°49'0 0.2
2014-Jul-21 22:27S 12°29' E 130°49'0 0.3
2014-Jul-21 21:25S 12°29' E 130°49'1 0.3
2014-Jul-21 19:24S 12°29' E 130°49'0 0.3
2014-Jul-21 18:22S 12°30' E 130°49'0 0.0
2014-Jul-21 17:19S 12°30' E 130°49'1 0.8
2014-Jul-21 16:26S 12°29' E 130°49'1 0.4
2014-Jul-21 14:29S 12°30' E 130°49'0 0.0
2014-Jul-21 13:12S 12°30' E 130°49'1 0.3
2014-Jul-21 10:33S 12°29' E 130°48'1 0.7
2014-Jul-21 09:33S 12°29' E 130°49'0 0.2
2014-Jul-21 07:20S 12°30' E 130°49'1 0.7
2014-Jul-21 06:28S 12°30' E 130°50'0 0.1
2014-Jul-21 04:29S 12°30' E 130°49'2 1.9
2014-Jul-21 03:29S 12°28' E 130°51'2 0.4
2014-Jul-20 22:08S 12°30' E 130°49'2 3.2
2014-Jul-20 21:33S 12°29' E 130°51'2 0.8
2014-Jul-20 19:32S 12°30' E 130°49'1 0.8
2014-Jul-20 18:16S 12°30' E 130°50'0 0.0
2014-Jul-20 17:31S 12°30' E 130°50'0 0.1
2014-Jul-20 16:31S 12°30' E 130°50'0 0.0
2014-Jul-20 15:31S 12°30' E 130°50'1 0.2
2014-Jul-20 09:28S 12°29' E 130°49'2 2.5
2014-Jul-20 08:34S 12°28' E 130°51'2 1.1
2014-Jul-20 06:25S 12°30' E 130°50'0 0.1
2014-Jul-20 05:10S 12°30' E 130°50'0 0.0
2014-Jul-20 04:31S 12°30' E 130°50'0 0.0
2014-Jul-20 03:13S 12°30' E 130°50'1 1.7
2014-Jul-20 02:23S 12°29' E 130°50'1 1.5
2014-Jul-20 01:27S 12°30' E 130°50'0 0.0
2014-Jul-20 00:27S 12°30' E 130°50'0 0.0
2014-Jul-19 21:22S 12°30' E 130°50'1 0.3
2014-Jul-19 19:17S 12°31' E 130°49'0 0.6
2014-Jul-19 18:30S 12°31' E 130°49'1 0.9
2014-Jul-19 17:31S 12°30' E 130°50'0 0.0
2014-Jul-19 09:19S 12°30' E 130°50'0 0.1
2014-Jul-19 06:29S 12°30' E 130°50'0 0.0
2014-Jul-19 05:14S 12°30' E 130°50'0 0.0
2014-Jul-19 04:34S 12°30' E 130°50'1 0.6
2014-Jul-19 03:23S 12°30' E 130°49'1 0.7
2014-Jul-19 02:30S 12°30' E 130°50'0 0.0
2014-Jul-19 01:30S 12°30' E 130°50'0 0.0
2014-Jul-19 00:30S 12°30' E 130°50'0 0.1
2014-Jul-18 23:33S 12°30' E 130°50'0 0.0
2014-Jul-18 19:27S 12°30' E 130°50'0 0.1
2014-Jul-18 18:23S 12°30' E 130°50'0 0.1
2014-Jul-18 17:23S 12°30' E 130°50'0 0.1
2014-Jul-18 16:26S 12°30' E 130°50'0 0.0
2014-Jul-18 15:23S 12°30' E 130°50'0 0.0
2014-Jul-18 14:29S 12°30' E 130°50'0 0.0
2014-Jul-18 09:09S 12°30' E 130°50'1 0.3
2014-Jul-18 06:33S 12°31' E 130°50'1 0.5
2014-Jul-18 05:21S 12°30' E 130°50'0 0.0
2014-Jul-18 04:24S 12°30' E 130°50'1 1.6
2014-Jul-18 03:32S 12°29' E 130°50'1 1.3
2014-Jul-18 02:26S 12°30' E 130°50'0 0.0
2014-Jul-18 01:26S 12°30' E 130°50'0 0.1
2014-Jul-18 00:27S 12°30' E 130°50'2 1.2
2014-Jul-17 22:30S 12°28' E 130°51'2 0.7
2014-Jul-17 19:31S 12°30' E 130°50'0 0.2
2014-Jul-17 18:32S 12°30' E 130°50'0 0.0
2014-Jul-17 17:29S 12°30' E 130°50'0 0.1
2014-Jul-17 16:20S 12°30' E 130°50'0 0.0
2014-Jul-17 15:32S 12°30' E 130°50'0 0.0
2014-Jul-17 14:32S 12°30' E 130°50'0 0.0
2014-Jul-17 13:20S 12°30' E 130°50'0 0.1
2014-Jul-17 09:15S 12°31' E 130°50'0 0.2
2014-Jul-17 07:20S 12°30' E 130°50'0 0.0
2014-Jul-17 06:32S 12°30' E 130°50'0 0.0
2014-Jul-17 05:32S 12°30' E 130°50'0 0.1
2014-Jul-17 04:32S 12°30' E 130°50'0 0.0
2014-Jul-17 03:30S 12°30' E 130°50'1 1.2
2014-Jul-17 02:27S 12°29' E 130°50'1 1.4
2014-Jul-17 01:32S 12°30' E 130°50'0 0.0
2014-Jul-17 00:32S 12°30' E 130°50'0 0.0
2014-Jul-16 21:28S 12°30' E 130°50'0 0.0
2014-Jul-16 19:33S 12°30' E 130°50'0 0.0
2014-Jul-16 17:03S 12°30' E 130°50'0 0.0
2014-Jul-16 16:33S 12°30' E 130°50'0 0.0
2014-Jul-16 15:33S 12°30' E 130°50'0 0.0
2014-Jul-16 14:06S 12°30' E 130°50'0 0.0
2014-Jul-16 13:33S 12°30' E 130°50'0 0.1
2014-Jul-16 09:16S 12°30' E 130°50'1 0.1
2014-Jul-16 05:16S 12°30' E 130°50'1 1.4
2014-Jul-16 04:28S 12°29' E 130°50'2 1.7
2014-Jul-16 03:24S 12°31' E 130°50'1 0.7
2014-Jul-16 02:29S 12°30' E 130°50'2 1.7
2014-Jul-16 01:05S 12°28' E 130°51'2 4.1
2014-Jul-16 00:31S 12°30' E 130°50'0 0.0
2014-Jul-15 21:18S 12°30' E 130°50'1 0.8
2014-Jul-15 19:34S 12°29' E 130°50'2 0.9
2014-Jul-15 17:30S 12°31' E 130°50'1 0.3
2014-Jul-15 15:24S 12°30' E 130°50'1 0.3
2014-Jul-15 13:30S 12°31' E 130°49'1 0.1
2014-Jul-15 09:06S 12°30' E 130°50'1 0.4
2014-Jul-15 07:26S 12°31' E 130°50'0 0.1
2014-Jul-15 03:20S 12°30' E 130°50'1 1.3
2014-Jul-15 02:15S 12°29' E 130°50'2 0.6
2014-Jul-14 23:06S 12°31' E 130°49'2 1.2
2014-Jul-14 21:33S 12°29' E 130°50'  
Track history (hours):
 
Tides and Currents Weather Stations Pressure Air Temp Water Temp Dewpoint Dewpoint Depression Visibility Wind Speed Wind Dir Waves Ship Positions

Pure Adrenalin

Last reported at 2014-Jul-24 21:29 UTC. Time now 2014-Jul-24 21:39 UTC.
Position S 12°29' E 130°49'.

Length 21 m.

Type: Ship. MMSI: 503642100.

Date/timePositionNaut miles runAvg speedWind from/ knotsBaromVisibWave heightAir tempDewpointWater temp
2014-Jul-24 21:29S 12°29' E 130°49'1 0.4
2014-Jul-24 19:31S 12°29' E 130°50'1 0.1
2014-Jul-24 13:24S 12°29' E 130°49'0 0.1
2014-Jul-24 12:27S 12°29' E 130°49'0 0.0
2014-Jul-24 11:27S 12°29' E 130°49'0 0.4
2014-Jul-24 10:32S 12°29' E 130°49'0 0.3
2014-Jul-24 09:31S 12°29' E 130°49'2 0.9
2014-Jul-24 07:15S 12°28' E 130°51'1 1.9
2014-Jul-24 06:32S 12°29' E 130°50'1 0.3
2014-Jul-24 03:33S 12°29' E 130°49'0 0.4
2014-Jul-24 02:27S 12°29' E 130°48'1 0.6
2014-Jul-24 01:33S 12°29' E 130°49'0 0.3
2014-Jul-24 00:32S 12°29' E 130°49'2 1.8
2014-Jul-23 23:31S 12°28' E 130°51'2 1.6
2014-Jul-23 22:31S 12°28' E 130°49'1 0.2
2014-Jul-23 19:28S 12°29' E 130°49'0 0.0
2014-Jul-23 14:31S 12°29' E 130°48'0 0.0
2014-Jul-23 12:10S 12°29' E 130°48'1 0.9
2014-Jul-23 11:33S 12°28' E 130°48'1 0.6
2014-Jul-23 10:33S 12°29' E 130°48'3 2.8
2014-Jul-23 09:33S 12°28' E 130°51'1 0.2
2014-Jul-23 06:30S 12°28' E 130°51'2 1.5
2014-Jul-23 05:21S 12°30' E 130°50'0 0.6
2014-Jul-23 04:33S 12°29' E 130°50'2 1.4
2014-Jul-23 03:21S 12°28' E 130°51'2 1.7
2014-Jul-23 02:20S 12°30' E 130°50'0 0.3
2014-Jul-23 01:29S 12°30' E 130°50'0 0.2
2014-Jul-23 00:26S 12°30' E 130°50'1 1.5
2014-Jul-22 23:32S 12°28' E 130°49'1 0.6
2014-Jul-22 22:26S 12°28' E 130°48'1 0.8
2014-Jul-22 21:33S 12°28' E 130°49'1 0.3
2014-Jul-22 19:16S 12°29' E 130°49'0 0.0
2014-Jul-22 18:31S 12°29' E 130°49'0 0.0
2014-Jul-22 17:31S 12°29' E 130°49'0 0.0
2014-Jul-22 13:25S 12°29' E 130°49'0 0.0
2014-Jul-22 12:25S 12°29' E 130°49'1 0.4
2014-Jul-22 11:10S 12°29' E 130°48'3 4.3
2014-Jul-22 10:31S 12°28' E 130°51'0 0.0
2014-Jul-22 09:31S 12°28' E 130°51'2 0.6
2014-Jul-22 06:14S 12°29' E 130°49'1 0.7
2014-Jul-22 05:28S 12°29' E 130°50'1 0.8
2014-Jul-22 04:06S 12°28' E 130°51'2 3.8
2014-Jul-22 03:33S 12°29' E 130°49'0 0.2
2014-Jul-22 02:27S 12°29' E 130°49'1 0.5
2014-Jul-22 00:14S 12°29' E 130°48'1 0.9
2014-Jul-21 23:18S 12°29' E 130°49'0 0.2
2014-Jul-21 22:27S 12°29' E 130°49'0 0.3
2014-Jul-21 21:25S 12°29' E 130°49'1 0.3
2014-Jul-21 19:24S 12°29' E 130°49'0 0.3
2014-Jul-21 18:22S 12°30' E 130°49'0 0.0
2014-Jul-21 17:19S 12°30' E 130°49'1 0.8
2014-Jul-21 16:26S 12°29' E 130°49'1 0.4
2014-Jul-21 14:29S 12°30' E 130°49'0 0.0
2014-Jul-21 13:12S 12°30' E 130°49'1 0.3
2014-Jul-21 10:33S 12°29' E 130°48'1 0.7
2014-Jul-21 09:33S 12°29' E 130°49'0 0.2
2014-Jul-21 07:20S 12°30' E 130°49'1 0.7
2014-Jul-21 06:28S 12°30' E 130°50'0 0.1
2014-Jul-21 04:29S 12°30' E 130°49'2 1.9
2014-Jul-21 03:29S 12°28' E 130°51'2 0.4
2014-Jul-20 22:08S 12°30' E 130°49'2 3.2
2014-Jul-20 21:33S 12°29' E 130°51'2 0.8
2014-Jul-20 19:32S 12°30' E 130°49'1 0.8
2014-Jul-20 18:16S 12°30' E 130°50'0 0.0
2014-Jul-20 17:31S 12°30' E 130°50'0 0.1
2014-Jul-20 16:31S 12°30' E 130°50'0 0.0
2014-Jul-20 15:31S 12°30' E 130°50'1 0.2
2014-Jul-20 09:28S 12°29' E 130°49'2 2.5
2014-Jul-20 08:34S 12°28' E 130°51'2 1.1
2014-Jul-20 06:25S 12°30' E 130°50'0 0.1
2014-Jul-20 05:10S 12°30' E 130°50'0 0.0
2014-Jul-20 04:31S 12°30' E 130°50'0 0.0
2014-Jul-20 03:13S 12°30' E 130°50'1 1.7
2014-Jul-20 02:23S 12°29' E 130°50'1 1.5
2014-Jul-20 01:27S 12°30' E 130°50'0 0.0
2014-Jul-20 00:27S 12°30' E 130°50'0 0.0
2014-Jul-19 21:22S 12°30' E 130°50'1 0.3
2014-Jul-19 19:17S 12°31' E 130°49'0 0.6
2014-Jul-19 18:30S 12°31' E 130°49'1 0.9
2014-Jul-19 17:31S 12°30' E 130°50'0 0.0
2014-Jul-19 09:19S 12°30' E 130°50'0 0.1
2014-Jul-19 06:29S 12°30' E 130°50'0 0.0
2014-Jul-19 05:14S 12°30' E 130°50'0 0.0
2014-Jul-19 04:34S 12°30' E 130°50'1 0.6
2014-Jul-19 03:23S 12°30' E 130°49'1 0.7
2014-Jul-19 02:30S 12°30' E 130°50'0 0.0
2014-Jul-19 01:30S 12°30' E 130°50'0 0.0
2014-Jul-19 00:30S 12°30' E 130°50'0 0.1
2014-Jul-18 23:33S 12°30' E 130°50'0 0.0
2014-Jul-18 19:27S 12°30' E 130°50'0 0.1
2014-Jul-18 18:23S 12°30' E 130°50'0 0.1
2014-Jul-18 17:23S 12°30' E 130°50'0 0.1
2014-Jul-18 16:26S 12°30' E 130°50'0 0.0
2014-Jul-18 15:23S 12°30' E 130°50'0 0.0
2014-Jul-18 14:29S 12°30' E 130°50'0 0.0
2014-Jul-18 09:09S 12°30' E 130°50'1 0.3
2014-Jul-18 06:33S 12°31' E 130°50'1 0.5
2014-Jul-18 05:21S 12°30' E 130°50'0 0.0
2014-Jul-18 04:24S 12°30' E 130°50'1 1.6
2014-Jul-18 03:32S 12°29' E 130°50'1 1.3
2014-Jul-18 02:26S 12°30' E 130°50'0 0.0
2014-Jul-18 01:26S 12°30' E 130°50'0 0.1
2014-Jul-18 00:27S 12°30' E 130°50'2 1.2
2014-Jul-17 22:30S 12°28' E 130°51'2 0.7
2014-Jul-17 19:31S 12°30' E 130°50'0 0.2
2014-Jul-17 18:32S 12°30' E 130°50'0 0.0
2014-Jul-17 17:29S 12°30' E 130°50'0 0.1
2014-Jul-17 16:20S 12°30' E 130°50'0 0.0
2014-Jul-17 15:32S 12°30' E 130°50'0 0.0
2014-Jul-17 14:32S 12°30' E 130°50'0 0.0
2014-Jul-17 13:20S 12°30' E 130°50'0 0.1
2014-Jul-17 09:15S 12°31' E 130°50'0 0.2
2014-Jul-17 07:20S 12°30' E 130°50'0 0.0
2014-Jul-17 06:32S 12°30' E 130°50'0 0.0
2014-Jul-17 05:32S 12°30' E 130°50'0 0.1
2014-Jul-17 04:32S 12°30' E 130°50'0 0.0
2014-Jul-17 03:30S 12°30' E 130°50'1 1.2
2014-Jul-17 02:27S 12°29' E 130°50'1 1.4
2014-Jul-17 01:32S 12°30' E 130°50'0 0.0
2014-Jul-17 00:32S 12°30' E 130°50'0 0.0
2014-Jul-16 21:28S 12°30' E 130°50'0 0.0
2014-Jul-16 19:33S 12°30' E 130°50'0 0.0
2014-Jul-16 17:03S 12°30' E 130°50'0 0.0
2014-Jul-16 16:33S 12°30' E 130°50'0 0.0
2014-Jul-16 15:33S 12°30' E 130°50'0 0.0
2014-Jul-16 14:06S 12°30' E 130°50'0 0.0
2014-Jul-16 13:33S 12°30' E 130°50'0 0.1
2014-Jul-16 09:16S 12°30' E 130°50'1 0.1
2014-Jul-16 05:16S 12°30' E 130°50'1 1.4
2014-Jul-16 04:28S 12°29' E 130°50'2 1.7
2014-Jul-16 03:24S 12°31' E 130°50'1 0.7
2014-Jul-16 02:29S 12°30' E 130°50'2 1.7
2014-Jul-16 01:05S 12°28' E 130°51'2 4.1
2014-Jul-16 00:31S 12°30' E 130°50'0 0.0
2014-Jul-15 21:18S 12°30' E 130°50'1 0.8
2014-Jul-15 19:34S 12°29' E 130°50'2 0.9
2014-Jul-15 17:30S 12°31' E 130°50'1 0.3
2014-Jul-15 15:24S 12°30' E 130°50'1 0.3
2014-Jul-15 13:30S 12°31' E 130°49'1 0.1
2014-Jul-15 09:06S 12°30' E 130°50'1 0.4
2014-Jul-15 07:26S 12°31' E 130°50'0 0.1
2014-Jul-15 03:20S 12°30' E 130°50'1 1.3
2014-Jul-15 02:15S 12°29' E 130°50'2 0.6
2014-Jul-14 23:06S 12°31' E 130°49'2 1.2
2014-Jul-14 21:33S 12°29' E 130°50'  

Dump ship's entire track history